Content
SEND FEEDBACK

Daily
Averages
Monthly
Summary
United States of America

PUT IN BAY, OHIO


Home > North America > United States > Ohio
Elevation: 561 feet     Latitude: 41 39N     Longitude: 082 48W

WEATHER
 
SELECT A DAY
Number of Records: 122,500;   Date Range: 12/10/00 - 7/27/14
 
SHARE

PRINT THIS DATA

[ ← Previous Day ]
WEATHER ALMANAC - FEBRUARY 15, 2013
[ Next Day → ]
[ °C ]   °F
Weather ElementAverageHighLow
Temperature29.6 °F35 °F (1:00 am)25.5 °F (8:00 pm)
Dewpoint18.3 °F27.9 °F (4:00 am)12 °F (6:00 pm)
Humidity61.9 %82 % (4:00 am)45 % (1:00 pm)
Barometer30.03 in30.14 in (10:00 pm)29.87 in (1:00 am)
Wind Speed7.3 mph15 mph (1:00 am)
Wind Gust20.7 mph (1:00 am)
Weather ElementAverage
Wind DirectionWNW (300.4 °)

Weather ElementTotal
Precipitation---
Heating Degree Days34.8 (Base 65)
Averaged from 27 records on February 15, 2013
WEATHER CONDITIONS BREAKOUT
WIND DIRECTION BREAKOUT
WEATHER BY HOUR - FEBRUARY 15, 2013
[ °C ]   °F
Local TimeTemperatureDewpointHumidityBarometerVisibilityWind DirectionWind SpeedGust SpeedPrecipitationEventsConditions
1:00 AM35.0 °F26.0 °F60 %29.87 inWest (270°)15.0 mph
1:00 AM34.7 °F26.2 °F71 %29.87 inWest (270°)15.0 mph20.7 mph
2:00 AM33.3 °F26.8 °F77 %29.88 inWest (270°)11.5 mph
3:00 AM33.3 °F27.3 °F79 %29.90 inWest (270°)10.4 mph17.3 mph
4:00 AM32.9 °F27.9 °F82 %29.91 inWest (280°)5.8 mph
5:00 AM31.5 °F23.5 °F73 %29.94 inWNW (290°)9.2 mph
6:00 AM30.2 °F23.5 °F76 %29.97 inWest (280°)6.9 mph
7:00 AM30.0 °F23.0 °F65 %29.99 inWNW (300°)4.6 mph
7:00 AM30.0 °F22.8 °F75 %29.99 inWNW (300°)4.6 mph
8:00 AM28.9 °F19.9 °F69 %30.02 inNW (310°)6.9 mph
9:00 AM29.3 °F19.6 °F67 %30.04 inNW (310°)5.8 mph
10:00 AM28.6 °F15.6 °F58 %30.06 inNW (310°)8.1 mph
11:00 AM27.9 °F13.6 °F55 %30.08 inNW (320°)6.9 mph
12:00 PM28.2 °F13.5 °F54 %30.08 inNW (320°)5.8 mph
1:00 PM29.0 °F16.0 °F45 %30.07 inWNW (300°)8.1 mph
1:00 PM29.1 °F16.0 °F58 %30.07 inWNW (300°)8.1 mph
2:00 PM30.4 °F17.4 °F59 %30.06 inWNW (300°)6.9 mph
3:00 PM31.6 °F15.6 °F52 %30.05 inNW (310°)9.2 mph
4:00 PM30.2 °F13.3 °F49 %30.07 inNW (310°)9.2 mph
5:00 PM29.5 °F13.5 °F51 %30.09 inNW (320°)6.9 mph
6:00 PM27.9 °F12.0 °F52 %30.10 inNNW (330°)5.8 mph
7:00 PM27.0 °F14.0 °F45 %30.12 inNW (320°)4.6 mph
7:00 PM26.8 °F14.2 °F59 %30.12 inNW (320°)4.6 mph
8:00 PM25.5 °F13.3 °F60 %30.12 inNW (310°)3.5 mph
9:00 PM25.7 °F13.3 °F59 %30.13 inNW (310°)3.5 mph
10:00 PM25.7 °F14.0 °F61 %30.14 inWNW (290°)3.5 mph
11:00 PM26.4 °F13.6 °F59 %30.13 inWNW (290°)5.8 mph
Hourly data recorded from CXHA, located miles away from Put In Bay, Ohio







STORIES FROM OUR PARTNERS